Stations météo

réclame
Mon MeteoGroup
Shoeburyness Landwick, Grande-Bretagne (3693): Température de l'air & dewpoint: 11.09.2019 20:00:00 - 17.09.2019 20:00:00 (BST)Shoeburyness Landwick, Grande-Bretagne (3693): Température de l'air -20cm & Température de l'air -100cm: 11.09.2019 20:00:00 - 17.09.2019 20:00:00 (BST)Shoeburyness Landwick, Grande-Bretagne (3693): Vitesse du vent: 11.09.2019 20:00:00 - 17.09.2019 20:00:00 (BST)Shoeburyness Landwick, Grande-Bretagne (3693): Direction du vent: 11.09.2019 20:00:00 - 17.09.2019 20:00:00 (BST)Shoeburyness Landwick, Grande-Bretagne (3693): reduced air pressure: 11.09.2019 20:00:00 - 17.09.2019 20:00:00 (BST)Shoeburyness Landwick, Grande-Bretagne (3693): visibility: 11.09.2019 20:00:00 - 17.09.2019 20:00:00 (BST)Shoeburyness Landwick, Grande-Bretagne (3693): Ensoleillement: 11.09.2019 20:00:00 - 17.09.2019 20:00:00 (BST)Shoeburyness Landwick, Grande-Bretagne (3693): Quantités de précipitations: 11.09.2019 20:00:00 - 17.09.2019 20:00:00 (BST)
Date & Time tt [°C] td [°C] tt -20cm [°C] tt -100cm [°C] ff [km/h] ff [knt] dd ppp [hPa] vv [km] sd [min] rr [mm]
17.09.2019 20:00:00 12,2 5,2 - - 13 7 NNE 1026,8 40 0 0,0
17.09.2019 19:00:00 14,6 6,1 - - 18 10 NE 1026,0 35 24 0,0
17.09.2019 18:00:00 16,6 6,7 - - 18 10 NE 1025,7 45 24 0,0
17.09.2019 17:00:00 17,3 6,7 - - 18 10 NE 1025,4 40 54 0,0
17.09.2019 16:00:00 18,0 6,6 - - 16 9 NNE 1025,2 50 54 0,0
17.09.2019 15:00:00 17,9 6,1 - - 18 10 NNE 1025,2 30 60 0,0
17.09.2019 14:00:00 18,1 5,8 - - 18 10 N 1024,9 40 60 0,0
17.09.2019 13:00:00 17,4 6,6 - - 22 12 NNW 1025,1 35 60 0,0
17.09.2019 12:00:00 16,4 6,3 - - 21 11 NNW 1025,0 40 60 0,0
17.09.2019 11:00:00 15,7 7,5 - - 16 9 N 1025,0 27 60 0,0
17.09.2019 10:00:00 14,4 8,3 16,9 17,0 21 11 N 1025,0 35 60 0,0
17.09.2019 09:00:00 12,0 9,2 - - 15 8 NNW 1024,5 45 60 0,0
17.09.2019 08:00:00 10,0 9,2 - - 11 6 NNW 1024,2 20 54 0,2
17.09.2019 07:00:00 8,7 8,4 - - 15 8 NNW 1023,7 12 0 0,0
17.09.2019 06:00:00 8,3 7,9 - - 11 6 NW 1023,1 2,8 0 0,0
17.09.2019 05:00:00 9,3 9,0 - - 11 6 NW 1023,1 4,4 0 0,0
17.09.2019 04:00:00 10,2 9,8 - - 8 4 WNW 1023,0 3,2 0 0,0
17.09.2019 03:00:00 10,2 9,5 - - 9 5 NNW 1022,9 4,3 0 0,0
17.09.2019 02:00:00 11,7 10,7 - - 9 5 NNW 1023,2 12 0 0,0
17.09.2019 01:00:00 12,6 11,0 - - 8 4 N 1022,9 15 - 0,0
17.09.2019 00:00:00 14,3 12,3 - - 5 3 ENE 1023,2 20 0 0,0
16.09.2019 23:00:00 14,7 12,7 - - 5 3 NNE 1023,3 30 0 0,0
16.09.2019 22:00:00 15,0 13,1 - - 13 7 NNE 1023,1 45 0 0,0
16.09.2019 21:00:00 14,9 14,0 - - 4 2 N 1022,9 17 0 0,0
16.09.2019 20:00:00 14,5 13,0 - - 8 4 ENE 1022,5 26 0 0,0
16.09.2019 19:00:00 15,9 14,3 - - 11 6 ENE 1022,1 14 0 0,0
16.09.2019 18:00:00 16,5 14,8 - - 9 5 ENE 1021,9 22 0 0,0
16.09.2019 17:00:00 16,8 15,3 - - 15 8 NNE 1021,8 20 0 0,0
16.09.2019 16:00:00 16,3 15,3 - - 16 9 NNE 1021,9 6 0 0,0
16.09.2019 15:00:00 17,9 15,2 - - 16 9 N 1021,7 23 0 0,0
16.09.2019 14:00:00 19,1 14,9 - - 9 5 NNW 1021,5 30 0 0,0
16.09.2019 13:00:00 18,6 14,5 - - 9 5 NNW 1021,5 45 0 0,0
16.09.2019 12:00:00 19,0 14,5 - - 11 6 NW 1021,7 35 0 0,0
16.09.2019 11:00:00 18,5 14,7 - - 9 5 NNW 1021,6 45 0 0,0
16.09.2019 10:00:00 18,1 14,7 17,4 17,0 13 7 NNW 1021,4 40 0 0,0
16.09.2019 09:00:00 17,1 14,6 - - 5 3 W 1021,2 35 0 0,0
16.09.2019 08:00:00 16,3 14,6 - - 4 2 NW 1020,9 40 0 0,0
16.09.2019 07:00:00 15,5 13,9 - - 2 1 NNW 1020,7 40 0 0,0
16.09.2019 06:00:00 15,6 14,0 - - 2 1 W 1020,4 45 0 0,0
16.09.2019 05:00:00 15,3 13,5 - - 4 2 NNE 1020,8 45 0 0,0
16.09.2019 04:00:00 15,3 13,2 - - 5 3 NW 1021,0 45 0 0,0
16.09.2019 03:00:00 15,4 13,5 - - 5 3 WNW 1021,3 50 0 0,0
16.09.2019 02:00:00 15,5 13,2 - - 4 2 NW 1021,6 45 0 0,0
16.09.2019 01:00:00 16,0 13,4 - - 8 4 WNW 1021,7 45 - 0,0
16.09.2019 00:00:00 16,3 13,4 - - 8 4 NW 1021,7 45 0 0,0
15.09.2019 23:00:00 16,8 13,0 - - 9 5 WNW 1021,9 50 0 0,0
15.09.2019 22:00:00 18,0 14,6 - - 4 2 WSW 1022,1 50 0 0,0
15.09.2019 21:00:00 18,1 13,1 - - 5 3 NW 1021,9 50 0 0,0
15.09.2019 20:00:00 19,9 13,8 - - 8 4 WNW 1021,9 50 0 0,0
15.09.2019 19:00:00 21,2 13,7 - - 2 1 WSW 1021,7 50 24 0,0
15.09.2019 18:00:00 23,0 14,4 - - 8 4 SSW 1021,7 45 60 0,0
15.09.2019 17:00:00 24,5 13,6 - - 13 7 SSW 1022,1 45 60 0,0
15.09.2019 16:00:00 23,7 13,3 - - 15 8 SSW 1022,6 50 60 0,0
15.09.2019 15:00:00 23,8 13,3 - - 15 8 SW 1023,0 45 60 0,0
15.09.2019 14:00:00 24,2 13,5 - - 13 7 WSW 1023,7 50 60 0,0
15.09.2019 13:00:00 23,3 13,1 - - 13 7 NW 1024,1 30 60 0,0
15.09.2019 12:00:00 22,5 13,3 - - 9 5 WNW 1024,3 45 60 0,0
15.09.2019 11:00:00 21,1 11,6 - - 13 7 NW 1024,9 40 60 0,0
15.09.2019 10:00:00 18,3 9,7 16,7 17,0 15 8 WNW 1024,7 50 60 0,0
15.09.2019 09:00:00 14,6 10,8 - - 9 5 WNW 1024,9 40 48 0,0
15.09.2019 08:00:00 13,6 9,7 - - 13 7 W 1024,7 35 18 0,0
15.09.2019 07:00:00 12,7 10,0 - - 11 6 W 1025,0 35 0 0,0
15.09.2019 06:00:00 12,6 10,1 - - 13 7 WSW 1024,8 35 0 0,0
15.09.2019 05:00:00 13,0 10,6 - - 11 6 WSW 1024,9 35 0 0,0
15.09.2019 04:00:00 13,1 11,2 - - 11 6 WSW 1025,3 30 0 0,0
15.09.2019 03:00:00 13,2 11,1 - - 9 5 WSW 1025,9 30 0 0,0
15.09.2019 02:00:00 12,5 12,1 - - 9 5 WSW 1026,3 20 0 0,0
15.09.2019 01:00:00 10,7 9,8 - - 8 4 WNW 1027,0 4,5 - 0,0
15.09.2019 00:00:00 12,0 10,9 - - 11 6 SSW 1027,2 9 0 0,0
14.09.2019 23:00:00 13,1 12,2 - - 9 5 SSW 1027,7 8 0 0,0
14.09.2019 22:00:00 13,5 11,9 - - 11 6 S 1028,2 17 0 0,0
14.09.2019 21:00:00 15,6 13,8 - - 11 6 SSE 1028,5 30 0 0,0
14.09.2019 20:00:00 15,7 13,5 - - 11 6 SE 1028,9 50 6 0,0
14.09.2019 19:00:00 16,5 12,9 - - 8 4 ESE 1029,0 45 30 0,0
14.09.2019 18:00:00 17,8 13,2 - - 11 6 SE 1029,2 40 54 0,0
14.09.2019 17:00:00 18,0 13,4 - - 15 8 ESE 1029,7 35 54 0,0
14.09.2019 16:00:00 18,6 12,9 - - 16 9 ESE 1030,3 35 60 0,0
14.09.2019 15:00:00 19,0 13,1 - - 16 9 E 1031,5 45 60 0,0
14.09.2019 14:00:00 18,2 12,2 - - 16 9 E 1032,2 40 60 0,0
14.09.2019 13:00:00 18,5 11,9 - - 15 8 ESE 1032,9 50 60 0,0
14.09.2019 12:00:00 18,3 11,5 - - 9 5 E 1033,5 40 60 0,0
14.09.2019 11:00:00 17,5 11,5 - - 9 5 E 1033,7 30 60 0,0
14.09.2019 10:00:00 17,4 12,5 16,7 17,0 8 4 E 1034,2 40 60 0,0
14.09.2019 09:00:00 14,0 13,1 - - 9 5 NNE 1034,4 21 60 0,0
14.09.2019 08:00:00 10,1 10,1 - - 8 4 NNW 1034,5 15 60 0,0
14.09.2019 07:00:00 7,1 6,9 - - 9 5 NNW 1034,7 9 6 0,0
14.09.2019 06:00:00 6,8 6,4 - - 9 5 NNW 1034,6 8 0 0,0
14.09.2019 05:00:00 7,5 7,0 - - 9 5 NNW 1034,7 12 0 0,0
14.09.2019 04:00:00 8,6 8,1 - - 9 5 NNW 1035,1 17 0 0,0
14.09.2019 03:00:00 9,2 8,7 - - 9 5 N 1035,6 22 0 0,0
14.09.2019 02:00:00 9,5 9,1 - - 5 3 NNE 1035,6 18 0 0,0
14.09.2019 01:00:00 8,9 8,0 - - 8 4 NNW 1036,1 17 - 0,0
14.09.2019 00:00:00 9,5 8,1 - - 9 5 NNE 1036,3 22 0 0,0
13.09.2019 23:00:00 10,8 8,8 - - 11 6 NE 1036,4 27 0 0,0
13.09.2019 22:00:00 12,2 9,4 - - 11 6 ENE 1036,3 30 0 0,0
13.09.2019 21:00:00 13,8 10,0 - - 13 7 ENE 1036,4 30 0 0,0
13.09.2019 20:00:00 14,7 10,3 - - 15 8 E 1035,7 30 0 0,0
13.09.2019 19:00:00 16,1 10,9 - - 16 9 E 1035,5 30 60 0,0
13.09.2019 18:00:00 17,2 12,0 - - 18 10 E 1035,2 24 60 0,0
13.09.2019 17:00:00 18,3 12,7 - - 18 10 ESE 1035,1 45 60 0,0
13.09.2019 16:00:00 18,5 12,8 - - 21 11 ESE 1035,0 35 60 0,0
13.09.2019 15:00:00 18,6 12,5 - - 21 11 ESE 1034,9 35 60 0,0
13.09.2019 14:00:00 18,8 12,7 - - 18 10 ESE 1034,9 29 42 0,0
13.09.2019 13:00:00 18,4 9,3 - - 9 5 NNE 1035,0 50 54 0,0
13.09.2019 12:00:00 18,7 10,6 - - 15 8 NNE 1035,1 50 48 0,0
13.09.2019 11:00:00 18,3 10,5 - - 15 8 N 1034,9 50 30 0,0
13.09.2019 10:00:00 15,7 10,7 17,0 17,0 16 9 NNW 1034,7 40 6 0,0
13.09.2019 09:00:00 15,4 11,2 - - 18 10 NNW 1033,8 45 36 0,0
13.09.2019 08:00:00 14,1 11,2 - - 15 8 NW 1033,2 40 54 0,0
13.09.2019 07:00:00 13,3 10,9 - - 13 7 NNW 1032,4 50 0 0,0
13.09.2019 06:00:00 14,9 12,5 - - 18 10 NNW 1031,4 50 0 0,0
13.09.2019 05:00:00 16,7 14,4 - - 18 10 NNW 1030,4 50 0 0,0
13.09.2019 04:00:00 17,7 15,4 - - 11 6 WNW 1029,9 30 0 0,0
13.09.2019 03:00:00 17,9 15,3 - - 13 7 W 1029,5 26 0 0,0
13.09.2019 02:00:00 17,7 15,3 - - 11 6 WSW 1029,3 19 0 0,0
13.09.2019 01:00:00 17,9 15,3 - - 16 9 W 1029,1 21 - 0,0
13.09.2019 00:00:00 17,9 15,1 - - 15 8 WSW 1028,6 22 0 0,0
12.09.2019 23:00:00 18,0 15,2 - - 15 8 WSW 1028,7 30 0 0,0
12.09.2019 22:00:00 18,3 15,2 - - 18 10 WSW 1028,4 40 0 0,0
12.09.2019 21:00:00 18,4 15,5 - - 16 9 SW 1028,0 40 0 0,0
12.09.2019 20:00:00 19,1 15,5 - - 18 10 SW 1027,6 50 6 0,0
12.09.2019 19:00:00 19,7 15,6 - - 22 12 SW 1026,9 40 30 0,0
12.09.2019 18:00:00 21,4 15,4 - - 26 14 SW 1026,6 35 60 0,0
12.09.2019 17:00:00 22,7 15,5 - - 24 13 SW 1026,3 35 60 0,0
12.09.2019 16:00:00 23,7 14,9 - - 24 13 SW 1026,4 45 54 0,0
12.09.2019 15:00:00 22,8 15,0 - - 26 14 SW 1026,8 35 54 0,0
12.09.2019 14:00:00 23,0 15,3 - - 22 12 WSW 1027,3 45 42 0,0
12.09.2019 13:00:00 21,6 15,7 - - 18 10 WSW 1027,8 40 30 0,0
12.09.2019 12:00:00 20,8 15,3 - - 22 12 WSW 1027,7 50 42 0,0
12.09.2019 11:00:00 19,6 14,5 - - 22 12 W 1027,7 40 30 0,0
12.09.2019 10:00:00 17,2 13,2 16,4 17,0 16 9 WSW 1027,3 28 36 0,0
12.09.2019 09:00:00 16,3 13,2 - - 18 10 W 1027,2 23 60 0,0
12.09.2019 08:00:00 15,0 12,9 - - 18 10 W 1026,6 23 60 0,0
12.09.2019 07:00:00 14,2 12,8 - - 11 6 W 1025,8 18 0 0,0
12.09.2019 06:00:00 14,5 12,7 - - 13 7 W 1025,2 24 0 0,0
12.09.2019 05:00:00 14,9 12,9 - - 13 7 W 1024,8 26 0 0,0
12.09.2019 04:00:00 15,2 13,0 - - 13 7 W 1024,7 40 0 0,0
12.09.2019 03:00:00 15,9 13,1 - - 15 8 W 1024,4 45 0 0,0
12.09.2019 02:00:00 16,4 14,1 - - 15 8 W 1024,0 50 0 0,0
12.09.2019 01:00:00 16,8 15,0 - - 13 7 WSW 1023,6 45 - 0,0
12.09.2019 00:00:00 17,1 15,4 - - 15 8 W 1023,3 50 0 0,0
11.09.2019 23:00:00 17,0 15,6 - - 15 8 WSW 1022,8 45 0 0,0
11.09.2019 22:00:00 16,9 15,7 - - 13 7 WSW 1022,3 24 0 0,0
11.09.2019 21:00:00 17,0 15,6 - - 11 6 SW 1022,0 23 0 0,0
11.09.2019 20:00:00 18,1 16,0 - - 15 8 WSW 1021,3 45 0 0,0

tt = Température de l'air
td = dewpoint
tt -20cm = Température de l'air -20cm
tt -100cm = Température de l'air -100cm
ff = Vitesse du vent
dd = Direction du vent
ppp = reduced air pressure
vv = visibility
sd = Ensoleillement
rr = Quantités de précipitations

stations d'obs. à proximité